Regional Weather Roundup
Issued by NWS

Home | Current Version | Previous Version | Graphics & Text | Print | Product List | Glossary On
Versions: 1 2 3 4 5 6 7 8 9 10 11 12 13 14 15 16 17 18 19 20 21 22 23 24 25 26 27 28 29 30 31 32 33 34 35 36 37 38 39 40 41 42 43 44 45 46 47 48 49 50
696
ASUS45 KCYS 231410
RWRWY

WYOMING REGIONAL WEATHER ROUNDUP
NATIONAL WEATHER SERVICE CHEYENNE WY
700 AM MST THU NOV 23 2017

NOTE:  "FAIR" INDICATES FEW OR NO CLOUDS BELOW 12,000 FEET
WITH NO SIGNIFICANT WEATHER AND/OR OBSTRUCTIONS TO VISIBILITY.

WYZ001-231500-
YELLOWSTONE NATIONAL PARK

CITY           SKY/WX    TMP DP  RH WIND       PRES   REMARKS
LK YELLOWSTONE   N/A     33  33 100 CALM      30.28F
W YELLOWSTONE  NOT AVBL

$$
WYZ002>013-054>058-071-098>099-231500-
NORTHERN WYOMING

CITY           SKY/WX    TMP DP  RH WIND       PRES   REMARKS
JACKSON        FAIR      31  30  96 NE3       30.26F
CODY           FAIR      55  35  47 SW7       30.07F
GREYBULL       FAIR      29  29 100 CALM      30.07F
WORLAND        FAIR      32  32 100 S7        30.08F WCI  26
SHERIDAN       FAIR      47  36  65 CALM      29.96S
BUFFALO        FAIR      50  29  44 W7        30.01F
GILLETTE       FAIR      50  36  58 SW18      29.99F
HULETT         FAIR      46  36  66 SW10      30.00F
NEWCASTLE      FAIR      32  32 100 CALM      30.07F

$$
WYZ014>020-022>026-101>103-231500-
CENTRAL WYOMING

CITY           SKY/WX    TMP DP  RH WIND       PRES   REMARKS
BIG PINEY      FAIR      21  19  92 CALM      30.33F
PINEDALE       FAIR      27  25  93 W6        30.33F WCI  20
DUBOIS         FAIR      43  32  65 NW18G24   30.20F
LANDER         FAIR      37  32  82 SE6       30.15F WCI  32
RIVERTON       FAIR      41  34  76 SW9       30.15F
CASPER         FAIR      45  36  70 SW15      30.15F
DOUGLAS        FAIR      36  34  92 N6        30.12F WCI  31

$$
WYZ021-027>030-104>119-231500-
SOUTHERN WYOMING

CITY           SKY/WX    TMP DP  RH WIND       PRES   REMARKS
EVANSTON       FAIR      40  35  83 S12       30.34F WCI  33
KEMMERER       FAIR      32  32 100 CALM      30.35F
FORT BRIDGER   FAIR      41  33  75 W7        30.37S
ROCK SPRINGS   FAIR      42  34  73 SW13      30.33F
DIXON          FAIR      30  28  94 CALM      30.39F
RAWLINS        FAIR      42  35  76 W12       30.29F
SARATOGA       FAIR      34  34 100 SE5       30.32F WCI  30
LARAMIE        FAIR      39  33  79 S12       30.26F WCI  32
CHEYENNE       FAIR      47  35  63 W16       30.19F
TORRINGTON     FAIR      42  39  89 N5        30.09F
PINE BLUFFS    FAIR      41  34  75 MISG      30.16S

$$




USA.gov is the U.S. government's official web portal to all federal, state and local government web resources and services.